Content
SEND FEEDBACK

Daily
Averages
Monthly
Summary
United States of America

BELLEVILLE, MICHIGAN


Home > North America > United States > Michigan
Elevation: 780 feet     Latitude: 42 14N     Longitude: 083 32W

WEATHER
 
SELECT A DAY
Number of Records: 206,628;   Date Range: 1/1/95 - 11/22/14
 
SHARE

PRINT THIS DATA

[ ← Previous Day ]
WEATHER ALMANAC - JANUARY 7, 2013
[ Next Day → ]
[ °C ]   °F
Weather ElementAverageHighLow
Temperature32.6 °F35.1 °F (12:53 pm)30 °F (8:53 am)
Dewpoint22.6 °F25 °F (1:53 am)19.4 °F (8:18 am)
Humidity66.8 %72 % (11:53 pm)61 % (6:53 am)
Barometer30.31 in30.40 in (9:53 am)30.18 in (9:53 pm)
Wind Speed12.5 mph21.9 mph (12:53 pm)
Wind Gust29.9 mph (12:53 pm)
Weather ElementAverage
Visibility8.8 mi
Wind DirectionSW (225 °)

Weather ElementTotal
Precipitation---
Heating Degree Days32.5 (Base 65)
Averaged from 24 records on January 7, 2013
WEATHER CONDITIONS BREAKOUT
WIND DIRECTION BREAKOUT
WEATHER BY HOUR - JANUARY 7, 2013
[ °C ]   °F
Local TimeTemperatureDewpointHumidityBarometerVisibilityWind DirectionWind SpeedGust SpeedPrecipitationEventsConditions
1:53 AM34.0 °F25.0 °F70 %30.30 in10.0 miWNW (290°)8.1 mphOvercast
2:53 AM33.1 °F24.1 °F70 %30.32 in10.0 miWNW (290°)4.6 mphOvercast
3:53 AM33.1 °F21.9 °F64 %30.33 in10.0 miWNW (300°)5.8 mphOvercast
4:53 AM33.1 °F23.0 °F66 %30.35 in10.0 miSW (230°)3.5 mphOvercast
5:53 AM33.1 °F24.1 °F70 %30.35 in10.0 miWSW (240°)4.6 mphOvercast
6:53 AM33.1 °F21.0 °F61 %30.36 in10.0 miWSW (240°)9.2 mphOvercast
7:32 AM30.2 °F21.2 °F69 %30.36 in10.0 miSW (220°)6.9 mphOvercast
7:53 AM30.9 °F19.9 °F64 %30.38 in10.0 miSW (230°)6.9 mphOvercast
8:18 AM30.2 °F19.4 °F64 %30.37 in10.0 miSSW (200°)6.9 mphOvercast
8:53 AM30.0 °F19.9 °F66 %30.39 in10.0 miSSW (200°)8.1 mphMostly Cloudy
9:53 AM33.1 °F21.9 °F64 %30.40 in10.0 miSW (220°)12.7 mphMostly Cloudy
10:06 AM33.8 °F23.0 °F65 %30.38 in10.0 miSW (230°)15.0 mphPartly Cloudy
10:53 AM34.0 °F24.1 °F67 %30.39 in8.0 miSSW (210°)13.8 mphClear
11:53 AM34.0 °F24.1 °F67 %30.36 in7.0 miSW (220°)13.8 mphClear
12:53 PM35.1 °F24.1 °F64 %30.32 in8.0 miSW (220°)21.9 mph29.9 mphClear
2:53 PM35.1 °F24.1 °F64 %30.26 in9.0 miSSW (200°)21.9 mph29.9 mphClear
3:53 PM35.1 °F24.1 °F64 %30.26 in9.0 miSSW (210°)19.6 mph29.9 mphClear
4:53 PM34.0 °F24.1 °F67 %30.24 in9.0 miSSW (200°)21.9 mph28.8 mphClear
6:53 PM32.0 °F23.0 °F69 %30.23 in8.0 miSSW (200°)19.6 mphClear
7:53 PM32.0 °F23.0 °F69 %30.22 in8.0 miSSW (200°)15.0 mphClear
8:53 PM30.9 °F21.9 °F69 %30.21 in7.0 miSSW (210°)16.1 mphClear
9:53 PM30.9 °F21.9 °F69 %30.18 in6.0 miSSW (200°)17.3 mphHaze
10:53 PM30.9 °F21.9 °F69 %30.18 in6.0 miSSW (210°)15.0 mphHaze
11:53 PM30.0 °F21.9 °F72 %30.18 in5.0 miSW (230°)12.7 mphHaze
Hourly data recorded from KYIP, located miles away from Belleville, Michigan







STORIES FROM OUR PARTNERS